Left ArrowRight Arrow

Hourly Observations for June 14, 2024

Temp ( °F °C ) Dew Point ( °F °C ) Humidity (%) Winds ( mph kmh ) Pressure ( in mb ) Visibility ( mi km ) Precip ( " mm )
12:15 am 00:15 Cloudy with Nearby Thunderstorms 76 24.5 60 15.8 58 58 E 12 19 29.94 1014 10 16 0.00 0.00
12:35 am 00:35 Cloudy with Rain and Nearby Thunderstorms 71 21.8 65 18.5 82 82 E 8 13 29.96 1015 6 10 0.01 0.25
12:55 am 00:55 Cloudy with Thunderstorms 70 21 66 18.9 88 88 Calm 29.99 1015 8 13 0.01 0.13
1:15 am 01:15 Cloudy with Light Rain and Nearby Thunderstorms 70 20.9 66 18.7 87 87 SSW 10 17 29.99 1015 3 5 0.01 0.25
1:35 am 01:35 Cloudy with Light Rain and Nearby Thunderstorms 69 20.5 67 19.2 92 92 SSW 10 17 29.98 1015 6 10 0.02 0.51
1:55 am 01:55 Cloudy with Light Rain and Nearby Thunderstorms 68 19.8 67 19.5 98 98 SSE 5 7 29.96 1015 5 8 0.01 0.13
2:15 am 02:15 Mostly Cloudy with Light Rain and Scattered Storms 68 19.8 67 19.3 97 97 VRB 3 6 29.94 1014 7 11 0.01 0.25
2:35 am 02:35 Mostly Clear 67 19.5 67 19.4 99 99 E 5 7 29.93 1014 9 14 0.02 0.51
2:55 am 02:55 Mostly Cloudy 67 19.7 67 19.5 99 99 SSE 5 7 29.94 1014 9 14 0.01 0.13
3:15 am 03:15 Mostly Cloudy 67 19.6 67 19.3 98 98 S 5 7 29.94 1014 9 14 0.01 0.25
3:35 am 03:35 Mostly Cloudy 67 19.5 67 19.3 99 99 S 6 9 29.93 1014 10 16 0.02 0.51
3:55 am 03:55 Mostly Cloudy 67 19.4 67 19.4 100 100 S 6 9 29.92 1013 10 16 0.01 0.13
4:15 am 04:15 Mostly Cloudy with Light Rain 67 19.5 67 19.3 99 99 S 6 9 29.91 1013 9 14 0.01 0.25
4:35 am 04:35 Mostly Cloudy 67 19.5 67 19.3 99 99 S 9 15 29.91 1013 10 16 0.01 0.25
4:55 am 04:55 Mostly Cloudy 67 19.4 67 19.2 99 99 SSW 6 9 29.92 1013 10 16 0.00 0.00
5:15 am 05:15 Mostly Cloudy 67 19.6 67 19.4 99 99 S 5 7 29.92 1013 10 16 0.00 0.00
5:35 am 05:35 Mostly Cloudy 67 19.6 67 19.3 98 98 SSW 10 17 29.93 1014 10 16 0.01 0.25
5:55 am 05:55 Partly Cloudy 67 19.6 67 19.2 98 98 S 5 7 29.91 1013 10 16 0.00 0.00
6:15 am 06:15 Partly Cloudy 67 19.5 67 19.2 98 98 S 6 9 29.91 1013 10 16 0.00 0.00
6:35 am 06:35 Mostly Cloudy 67 19.5 67 19.2 98 98 S 6 9 29.91 1013 10 16 0.01 0.25
6:55 am 06:55 Partly Cloudy 67 19.4 66 19.1 98 98 S 6 9 29.92 1013 10 16 0.00 0.00
7:15 am 07:15 Sunny 67 19.6 67 19.3 98 98 SE 3 6 29.92 1013 10 16 0.00 0.00
7:35 am 07:35 Mostly Sunny 68 20.1 67 19.5 96 96 Calm 29.92 1013 10 16 0.00 0.00
7:55 am 07:55 Mostly Sunny 69 20.8 67 19.7 93 93 ENE 3 6 29.93 1013 10 16 0.01 0.25
8:15 am 08:15 Sunny 70 21.3 67 19.7 91 91 N 3 6 29.93 1014 10 16 0.01 0.25
8:35 am 08:35 Sunny 72 22 69 20.4 91 91 N 3 6 29.93 1014 10 16 0.01 0.25
8:55 am 08:55 Sunny 73 22.5 69 20.6 89 89 Calm 29.93 1014 10 16 0.00 0.00
9:15 am 09:15 Sunny 73 22.7 68 20.1 85 85 Calm 29.93 1014 10 16 0.00 0.00
9:35 am 09:35 Sunny 74 23.2 68 19.9 82 82 Calm 29.93 1013 10 16 0.01 0.25
9:55 am 09:55 Sunny 75 23.7 68 20.1 80 80 Calm 29.94 1014 10 16 0.00 0.00
10:15 am 10:15 Sunny 77 25 68 20.2 75 75 W 3 6 29.93 1014 10 16 0.00 0.00
10:35 am 10:35 Sunny 78 25.7 68 19.9 70 70 WNW 3 6 29.93 1014 10 16 0.00 0.00
10:55 am 10:55 Sunny 79 26.2 68 20.1 69 69 VRB 6 9 29.92 1013 10 16 0.00 0.00
11:15 am 11:15 Sunny 80 26.6 67 19.7 66 66 VRB 6 9 29.93 1013 10 16 0.00 0.00
11:35 am 11:35 Mostly Sunny 81 27 69 20.6 68 68 N 6 9 29.92 1013 10 16 0.00 0.00
11:55 am 11:55 Mostly Sunny 81 27.2 69 20.7 68 68 N 12 19 29.92 1013 10 16 0.00 0.00
12:15 pm 12:15 Sunny 82 27.6 70 20.9 67 67 N 8 13 29.93 1013 10 16 0.00 0.00
12:35 pm 12:35 Sunny 82 28 70 20.9 65 65 NNW 8 13 29.92 1013 10 16 0.01 0.25
12:55 pm 12:55 Sunny 83 28.4 70 20.9 64 64 NW 7 11 29.92 1013 10 16 0.00 0.00
1:15 pm 13:15 Partly Cloudy 84 28.7 70 21.3 64 64 NNW 10 17 29.92 1013 10 16 0.00 0.00
1:35 pm 13:35 Mostly Cloudy 84 28.9 71 21.8 66 66 N 10 17 29.92 1013 10 16 0.00 0.00
1:55 pm 13:55 Partly Cloudy 84 29 71 21.5 64 64 NW 8 13 29.92 1013 10 16 0.00 0.00
2:15 pm 14:15 Partly Cloudy 83 28.3 69 20.7 63 63 NNW 12 19 29.92 1013 10 16 0.00 0.00
2:35 pm 14:35 Mostly Sunny 85 29.3 68 20.2 58 58 N 9 15 29.92 1013 10 16 0.00 0.00
2:55 pm 14:55 Partly Cloudy 84 29.1 69 20.6 60 60 NNW 9 15 29.92 1013 10 16 0.00 0.00
3:15 pm 15:15 Mostly Sunny 85 29.3 68 20.1 58 58 N 10 17 29.92 1013 10 16 0.00 0.00
3:35 pm 15:35 Partly Cloudy 86 29.8 67 19.4 54 54 N 9 15 29.92 1013 10 16 0.00 0.00
3:55 pm 15:55 Mostly Sunny 85 29.6 65 18.4 51 51 NNW 13 20 29.92 1013 10 16 0.00 0.00
4:15 pm 16:15 Mostly Sunny 85 29.6 63 17.3 48 48 N 13 20 29.92 1013 10 16 0.00 0.00
4:35 pm 16:35 Sunny 85 29.5 63 17 47 47 N 8 13 29.92 1013 10 16 0.00 0.00
4:55 pm 16:55 Sunny 85 29.5 61 16 44 44 N 13 20 29.92 1013 10 16 0.00 0.00
5:15 pm 17:15 Sunny 85 29.7 60 15.3 42 42 NW 12 19 29.92 1013 10 16 0.00 0.00
5:35 pm 17:35 Mostly Sunny 86 29.9 60 15.4 41 41 NW 9 15 29.92 1013 10 16 0.00 0.00
5:55 pm 17:55 Mostly Sunny 84 29 58 14.7 42 42 NNE 9 15 29.92 1013 10 16 0.00 0.00
6:15 pm 18:15 Partly Cloudy 86 29.8 60 15.4 42 42 NNE 13 20 29.92 1013 10 16 0.00 0.00
6:35 pm 18:35 Partly Cloudy 85 29.6 57 13.8 38 38 NNW 9 15 29.92 1013 10 16 0.00 0.00
6:55 pm 18:55 Mostly Sunny 85 29.2 58 14.5 41 41 NNW 9 15 29.93 1014 10 16 0.00 0.00
7:15 pm 19:15 Sunny 83 28.3 57 14 42 42 N 9 15 29.93 1014 10 16 0.00 0.00
7:35 pm 19:35 Sunny 83 28.5 60 15.4 45 45 N 7 11 29.93 1014 10 16 0.00 0.00
7:55 pm 19:55 Sunny 82 27.5 57 13.7 43 43 NNW 9 15 29.94 1014 10 16 0.00 0.00
8:15 pm 20:15 Sunny 80 26.8 58 14.3 46 46 NNW 7 11 29.95 1014 10 16 0.00 0.00
8:35 pm 20:35 Sunny 78 25.4 59 15 53 53 NNW 7 11 29.96 1015 10 16 0.00 0.00
8:55 pm 20:55 Sunny 76 24.3 59 15 56 56 NNW 5 7 29.97 1015 10 16 0.00 0.00
9:15 pm 21:15 Clear 76 24.4 55 13 49 49 NNW 7 11 29.96 1015 10 16 0.00 0.00
9:35 pm 21:35 Clear 73 23 55 13 53 53 NNW 7 11 29.98 1015 10 16 0.00 0.00
9:55 pm 21:55 Clear 71 21.9 58 14.4 62 62 NNW 6 9 29.98 1015 10 16 0.00 0.00
10:15 pm 22:15 Clear 71 21.4 57 14.1 63 63 NNW 8 13 29.99 1016 10 16 0.00 0.00
10:35 pm 22:35 Clear 72 22.3 55 12.5 54 54 NNW 7 11 29.99 1016 10 16 0.00 0.00
10:55 pm 22:55 Clear 71 21.5 55 13 58 58 N 7 11 30.00 1016 10 16 0.00 0.00
11:15 pm 23:15 Clear 68 20.1 56 13.4 65 65 N 6 9 30.01 1016 10 16 0.00 0.00
11:35 pm 23:35 Clear 67 19.4 58 14.3 72 72 NE 3 6 30.01 1016 10 16 0.00 0.00
11:55 pm 23:55 Clear 66 18.9 59 15.1 79 79 N 3 6 30.02 1017 10 16 0.00 0.00

Powered by Vaisala Xweather